[[{"header":{"parameterUnit":"m.s-1","parameterCategory":1,"la1":30.2991,"la2":30.254,"lo1":-89.0895,"lo2":-89.0444,"dy":0.0017,"dx":0.0017,"nx":28,"ny":28,"refTime":"2023-11-07T03:00:00:Z","depth":0,"parameterNumber":2,"parameterNumberName":"U-component_of_WINDS"},"data":[0,0,0,0,0,0,0,0,0,0,0,0,0,0,0,0,0,0,0,0,0,0,0,0,0,0,0,0,0,0,0,0,0,0,0,0,0,0,0,0,0,0,0,0,0,0,0,0,0,0,0,0,0,0,0,0,0,0,1.1508,1.1508,0,1.152,1.152,1.152,1.1483,1.1482,1.1481,1.148,1.1492,1.1494,1.1495,0,0,0,0,0,0,0,0,0,0,0,0,0,1.1453,1.1454,1.1508,1.1508,1.1509,1.152,1.152,1.152,1.1484,1.1482,1.1481,1.148,1.1492,1.1494,1.1495,0,0,0,0,0,0,0,0,0,0,0,0,0,1.1472,1.1455,1.1508,1.1492,1.149,1.152,1.152,1.1521,1.1484,1.1482,1.1481,1.1479,1.1491,1.1493,1.1495,1.1542,0,0,1.1502,1.1503,0,0,0,0,0,0,0,0,1.1471,1.1474,1.1494,1.1493,1.1491,1.1499,1.1505,1.1528,1.1484,1.1486,1.148,1.1478,1.1496,1.1497,1.1503,1.1543,1.1543,1.1502,1.1503,1.1504,1.1505,0,0,0,0,0,0,0,1.147,1.1474,1.1513,1.1494,1.1493,1.1483,1.1484,1.1509,1.15,1.1486,1.1483,1.1485,1.1495,1.1501,1.1503,1.1543,1.1502,1.1504,1.1505,1.1506,1.162,1.1622,0,0,0,0,0,0,1.1471,1.1473,1.1513,1.1513,1.1477,1.1486,1.1487,1.1498,1.15,1.1499,1.1487,1.1484,1.1499,1.1501,1.1504,1.1557,1.1504,1.1506,1.1507,1.1618,1.1621,1.1622,0,0,0,0,0,0,1.147,1.1475,1.1512,1.1492,1.1496,1.1488,1.1501,1.1499,1.1506,1.1501,1.1499,1.1495,1.1498,1.1501,1.1532,1.1557,1.1507,1.1509,1.1616,1.1619,1.1621,1.1666,0,0,0,0,0,0,1.1468,1.1475,1.1492,1.1493,1.1498,1.1541,1.1503,1.1501,1.1509,1.1505,1.1508,1.1507,1.1496,1.153,1.1535,1.1559,1.151,1.1614,1.1617,1.1621,1.1662,1.167,1.1676,0,0,0,0,0,1.1467,1.1505,1.1493,1.1499,1.152,1.1543,1.1545,1.1532,1.1512,1.1529,1.1526,1.1507,1.1554,1.1533,1.1538,1.1564,1.1612,1.1616,1.162,1.1659,1.1668,1.1676,0,0,0,0,0,0,1.1507,1.1504,1.1492,1.1532,1.1538,1.1536,1.1558,1.1543,1.1555,1.1551,1.1534,1.1535,1.157,1.157,1.1547,1.1609,1.158,1.1585,1.1607,1.1616,1.1623,1.1622,1.1512,0,0,0,0,0,1.1521,1.154,1.1536,1.1572,1.1575,1.1566,1.1576,1.1565,1.1571,1.1573,1.1572,1.1578,1.1594,1.1605,1.162,1.1662,1.1662,1.1683,1.169,1.1695,1.17,1.1722,1.1731,1.1636,1.1636,1.1636,0,0,1.1549,1.155,1.1563,1.158,1.1583,1.1603,1.1569,1.1591,1.1605,1.1577,1.1606,1.1606,1.1611,1.1648,1.1665,1.165,1.1726,1.1701,1.1705,1.1707,1.1727,1.1736,1.1744,1.1638,1.1638,1.1638,0,0,1.1611,1.1614,1.1643,1.1647,1.1652,1.1646,1.1653,1.1654,1.1652,1.1682,1.166,1.1677,1.1705,1.171,1.1716,1.1779,1.1761,1.1784,1.1821,1.1842,1.1849,1.1856,1.1877,1.1885,1.1789,1.1789,1.1789,0,1.1645,1.1674,1.166,1.1683,1.1691,1.1666,1.1695,1.1699,1.1709,1.1715,1.1699,1.1733,1.1735,1.1772,1.1787,1.1794,1.1801,1.1783,1.1849,1.1856,1.1862,1.1882,1.189,1.1791,1.1791,1.1791,1.179,0,1.1716,1.1736,1.1759,1.1769,1.1779,1.1805,1.1795,1.1807,1.1795,1.1791,1.1821,1.1822,1.1836,1.1845,1.1834,1.188,1.1871,1.1852,1.1822,1.1874,1.1892,1.19,1.1795,1.1794,1.1793,1.1793,0,0,1.1803,1.1804,1.1813,1.1817,1.1821,1.1836,1.1861,1.1874,1.1885,1.1893,1.1913,1.1937,1.1919,1.1926,1.1916,1.1935,1.1983,1.1913,1.1913,1.1926,1.2033,1.2047,1.2056,1.1972,1.1973,1.1975,1.2033,0,1.1863,1.1905,1.1893,1.1935,1.1953,1.193,1.1951,1.1956,1.1952,1.1967,1.1963,1.198,1.1956,1.196,1.1977,1.1974,1.2004,1.1969,1.199,1.1991,1.1989,1.2066,1.2081,1.2136,1.204,1.2041,1.2042,0,1.1938,1.1948,1.1993,1.1993,1.2,1.202,1.2031,1.2045,1.205,1.2046,1.2053,1.2039,1.2063,1.2033,1.2066,1.2042,1.205,1.2049,1.2051,1.2052,1.2019,1.2069,1.2153,1.2161,1.2054,1.2053,1.2052,0,1.1996,1.2021,1.2051,1.2055,1.2056,1.207,1.2072,1.2074,1.2083,1.2093,1.2098,1.2111,1.2117,1.2127,1.2117,1.2096,1.2151,1.212,1.2147,1.2148,1.216,1.2159,1.2246,1.2166,1.2166,1.2166,1.2165,0,1.2064,1.2092,1.2077,1.2095,1.2125,1.2111,1.2141,1.2139,1.2142,1.2159,1.214,1.2156,1.2141,1.2156,1.2148,1.2176,1.2179,1.2176,1.2174,1.2178,1.2178,1.2182,1.2178,1.2168,1.2167,1.2167,1.2167,0,1.2134,1.2125,1.2155,1.2154,1.2154,1.2176,1.2175,1.2192,1.2186,1.2208,1.2213,1.2204,1.2221,1.2211,1.2229,1.2223,1.2259,1.2251,1.2257,1.2255,1.2282,1.228,1.2374,1.2386,1.2299,1.23,1.2301,0,1.2177,1.2198,1.2198,1.2208,1.2211,1.2227,1.2236,1.2222,1.2232,1.2238,1.2254,1.2269,1.228,1.2308,1.2303,1.2316,1.2308,1.2341,1.231,1.2313,1.2308,1.2307,1.2308,1.2347,1.2348,1.2348,1.2349,0,1.2254,1.2249,1.2262,1.2274,1.2284,1.2293,1.23,1.2309,1.2296,1.2307,1.2324,1.2333,1.235,1.2365,1.2376,1.2377,1.2361,1.2359,1.2366,1.237,1.2372,1.237,1.2273,1.2357,1.2356,1.2355,1.2355,1.2355,1.2311,1.2328,1.2331,1.2347,1.235,1.2357,1.2372,1.2369,1.2382,1.2395,1.2386,1.2406,1.241,1.2422,1.2425,1.244,1.2427,1.2437,1.244,1.2442,1.2446,1.237,1.2442,1.2442,1.2442,1.2442,1.2442,0,1.2387,1.2388,1.2402,1.2412,1.2424,1.2408,1.2414,1.2425,1.2443,1.2447,1.2458,1.2477,1.2492,1.2488,1.2501,1.2513,1.2506,1.2517,1.2516,1.2516,1.2457,1.2449,1.2523,1.2523,1.2523,1.2523,1.2523,1.2523,1.2428,1.2455,1.245,1.2479,1.248,1.2499,1.2504,1.251,1.2513,1.2535,1.2547,1.2544,1.2546,1.2558,1.257,1.2569,1.2574,1.2588,1.2584,1.2528,1.252,1.2513,1.2505,1.2589,1.2589,1.2641,1.2642,1.2642]},{"header":{"parameterUnit":"m.s-1","parameterCategory":1,"la1":30.2991,"la2":30.254,"lo1":-89.0895,"lo2":-89.0444,"dy":0.0017,"dx":0.0017,"nx":28,"ny":28,"refTime":"2023-11-07T03:00:00:Z","depth":0,"parameterNumber":3,"parameterNumberName":"V-component_of_WINDS"},"data":[0,0,0,0,0,0,0,0,0,0,0,0,0,0,0,0,0,0,0,0,0,0,0,0,0,0,0,0,0,0,0,0,0,0,0,0,0,0,0,0,0,0,0,0,0,0,0,0,0,0,0,0,0,0,0,0,0,0,1.665,1.6649,0,1.6593,1.6593,1.6592,1.6513,1.6512,1.6511,1.651,1.6453,1.6452,1.6452,0,0,0,0,0,0,0,0,0,0,0,0,0,1.669,1.669,1.665,1.6649,1.6649,1.6593,1.6593,1.6592,1.6514,1.6512,1.651,1.6509,1.6453,1.6452,1.6452,0,0,0,0,0,0,0,0,0,0,0,0,0,1.6657,1.669,1.665,1.6603,1.6598,1.6594,1.6593,1.6592,1.6514,1.6512,1.651,1.6508,1.6453,1.6452,1.6452,1.649,0,0,1.6451,1.6451,0,0,0,0,0,0,0,0,1.6659,1.6656,1.661,1.6606,1.6601,1.6558,1.6586,1.6558,1.6515,1.6546,1.651,1.6507,1.649,1.6486,1.648,1.6487,1.6485,1.6451,1.6451,1.645,1.645,0,0,0,0,0,0,0,1.6662,1.6658,1.6628,1.661,1.6604,1.6585,1.6578,1.658,1.653,1.6543,1.6537,1.6532,1.6486,1.648,1.6478,1.6484,1.6451,1.645,1.645,1.645,1.6518,1.652,0,0,0,0,0,0,1.6671,1.666,1.6629,1.6626,1.6626,1.6585,1.6578,1.6574,1.6529,1.6521,1.6533,1.6528,1.6482,1.6478,1.6476,1.6516,1.645,1.645,1.645,1.6516,1.6519,1.6521,0,0,0,0,0,0,1.6672,1.6669,1.6632,1.6642,1.6635,1.6587,1.6583,1.6574,1.6568,1.6522,1.6513,1.6536,1.648,1.6476,1.6487,1.6513,1.645,1.6449,1.6514,1.6517,1.652,1.6599,0,0,0,0,0,0,1.6674,1.667,1.6684,1.6642,1.6635,1.6644,1.6585,1.6574,1.6567,1.656,1.6523,1.6514,1.6478,1.6488,1.6486,1.6512,1.6449,1.6511,1.6515,1.6519,1.6594,1.6604,1.6613,0,0,0,0,0,1.6675,1.6709,1.6685,1.6682,1.6651,1.6645,1.6641,1.6599,1.657,1.6583,1.6554,1.6516,1.6511,1.6489,1.6487,1.6513,1.6509,1.6514,1.6519,1.6589,1.6602,1.6613,0,0,0,0,0,0,1.6755,1.6702,1.6675,1.6696,1.6676,1.6632,1.6648,1.6614,1.6602,1.6596,1.6544,1.6536,1.6553,1.6534,1.6511,1.6547,1.6504,1.6509,1.6559,1.6571,1.658,1.6585,1.6449,0,0,0,0,0,1.6775,1.6774,1.6728,1.6751,1.6742,1.6697,1.6693,1.6662,1.6639,1.663,1.6601,1.6581,1.6574,1.6571,1.6563,1.659,1.6581,1.6607,1.6617,1.6625,1.663,1.6642,1.6653,1.6536,1.6536,1.6536,0,0,1.6816,1.6787,1.679,1.6766,1.6747,1.6747,1.669,1.6694,1.6694,1.6631,1.6639,1.6617,1.659,1.6609,1.6616,1.6594,1.666,1.6631,1.6638,1.6638,1.6648,1.6659,1.6669,1.6539,1.6539,1.6538,0,0,1.6891,1.6869,1.6886,1.6867,1.6838,1.6808,1.6812,1.6773,1.6756,1.6763,1.6716,1.6715,1.6705,1.6688,1.6678,1.6747,1.6711,1.6745,1.6797,1.681,1.6819,1.6827,1.6851,1.6861,1.675,1.675,1.675,0,1.6946,1.6945,1.6898,1.6904,1.6895,1.6838,1.6854,1.6838,1.6809,1.6804,1.6779,1.6765,1.6743,1.6757,1.6774,1.6767,1.677,1.675,1.6822,1.6829,1.6836,1.6858,1.6868,1.6754,1.6754,1.6753,1.6753,0,1.7014,1.7014,1.703,1.7003,1.6995,1.7007,1.6962,1.696,1.6929,1.6902,1.691,1.6881,1.6866,1.6867,1.6837,1.6877,1.6864,1.6831,1.6787,1.6852,1.6872,1.6881,1.6761,1.6759,1.6758,1.6757,0,0,1.7138,1.7084,1.7091,1.7077,1.7041,1.704,1.7049,1.7033,1.7033,1.7014,1.702,1.7012,1.6982,1.697,1.6938,1.695,1.7006,1.6915,1.6914,1.6933,1.7047,1.7072,1.7083,1.6981,1.6983,1.6984,1.7049,0,1.7207,1.7218,1.7176,1.7198,1.7197,1.7142,1.7149,1.7128,1.7102,1.7098,1.7069,1.7065,1.7025,1.7018,1.7027,1.6997,1.7028,1.6992,1.6987,1.6987,1.6996,1.7094,1.712,1.7183,1.7057,1.7058,1.7059,0,1.7288,1.7273,1.7295,1.7257,1.7255,1.7263,1.7245,1.7241,1.7216,1.7196,1.7184,1.7146,1.7152,1.711,1.7117,1.7093,1.7088,1.7074,1.7075,1.7073,1.7028,1.7095,1.7202,1.7212,1.7071,1.707,1.707,0,1.7377,1.7362,1.7373,1.7364,1.7319,1.7326,1.7308,1.728,1.7273,1.7258,1.7253,1.7239,1.7231,1.7221,1.718,1.7153,1.7192,1.7147,1.7176,1.7177,1.7187,1.7187,1.7296,1.7184,1.7184,1.7184,1.7183,0,1.7458,1.7474,1.7413,1.742,1.7436,1.7387,1.7404,1.738,1.7356,1.7358,1.7309,1.7311,1.7258,1.7254,1.7223,1.7233,1.723,1.7215,1.7206,1.7219,1.7221,1.7216,1.7211,1.7186,1.7185,1.7185,1.7185,0,1.756,1.752,1.7528,1.7486,1.7475,1.7489,1.7452,1.7457,1.7428,1.743,1.7428,1.7382,1.7375,1.7334,1.7318,1.7297,1.7319,1.7301,1.7328,1.7322,1.7354,1.7352,1.7463,1.7475,1.7356,1.7357,1.7358,0,1.7615,1.7625,1.7584,1.7581,1.7565,1.7561,1.7554,1.7506,1.7501,1.7472,1.7481,1.747,1.7459,1.745,1.7416,1.7403,1.7385,1.7425,1.7383,1.7396,1.7386,1.7386,1.7387,1.7435,1.7436,1.7437,1.7438,0,1.7716,1.7695,1.7687,1.7671,1.7664,1.7649,1.7631,1.7632,1.7579,1.7576,1.7568,1.7559,1.7542,1.7532,1.7514,1.7495,1.7458,1.7452,1.7458,1.7472,1.7486,1.7479,1.7352,1.745,1.7448,1.7448,1.7447,1.7447,1.7796,1.7803,1.7774,1.7766,1.7748,1.7732,1.7735,1.7706,1.7698,1.7681,1.7653,1.7649,1.7623,1.7594,1.7578,1.7574,1.7553,1.7562,1.7564,1.7567,1.7574,1.7487,1.7571,1.757,1.757,1.757,1.7569,0,1.7895,1.7874,1.7866,1.7843,1.7837,1.7802,1.7781,1.7778,1.7775,1.7753,1.7743,1.7734,1.7724,1.7689,1.7675,1.7679,1.7661,1.7677,1.7676,1.7672,1.7594,1.759,1.7691,1.7691,1.7691,1.7691,1.7691,1.7691,1.7945,1.7955,1.7931,1.7931,1.791,1.7905,1.7896,1.7882,1.7864,1.7856,1.7847,1.7824,1.7797,1.778,1.777,1.7759,1.7757,1.7778,1.7762,1.769,1.7678,1.7667,1.7663,1.7777,1.7778,1.7841,1.7841,1.7842]}]]